EW6413 Weather Reports


Display with metric or nautical units.
time (UTC)temp
F
wind
direction
speed
MPH
gust
MPH
rain 1hr
in
rain 24hr
in
rain mn
in
humidity
%
barometer
mb
20260503172959 58 294 2.0 4.0 0.00 0.00 0.00 80 1012.0
20260503172455 58 292 2.0 4.0 0.00 0.00 0.00 79 1011.9
20260503171956 58 253 2.0 5.0 0.00 0.00 0.00 79 1011.9
20260503171456 58 262 2.0 5.0 0.00 0.00 0.00 78 1011.9
20260503170956 57 273 2.0 4.0 0.00 0.00 0.00 78 1011.9
20260503170715 57 0 2.0 3.0 0.00 0.00 0.00 79 1011.9
20260503150926 55 4 1.0 2.0 0.00 0.00 0.00 81 1011.5
20260503150645 55 57 1.0 2.0 0.00 0.00 0.00 82 1011.5
20260503150143 55 79 1.0 3.0 0.00 0.00 0.00 82 1011.5
20260503131357 53 32 2.0 4.0 0.00 0.00 0.00 84 1010.3
20260503130857 53 0 2.0 2.0 0.00 0.00 0.00 84 1010.3
20260503130358 53 267 2.0 3.0 0.00 0.00 0.00 84 1010.2
20260503110814 53 305 2.0 3.0 0.00 0.00 0.00 83 1010.2
20260503110300 53 205 2.0 3.0 0.00 0.00 0.00 83 1010.1
20260503100249 53 271 2.0 5.0 0.00 0.00 0.00 83 1010.1
20260503090248 53 255 2.0 5.0 0.00 0.00 0.00 84 1010.4
20260503081236 54 280 2.0 4.0 0.00 0.00 0.00 85 1010.8
20260503080735 54 17 2.0 4.0 0.00 0.00 0.00 85 1010.9
20260503080236 54 359 2.0 6.0 0.00 0.00 0.00 85 1011.0
20260503072230 54 276 1.0 3.0 0.00 0.00 0.00 84 1011.0
20260503071731 54 272 1.0 4.0 0.00 0.00 0.00 84 1011.0
20260503071231 54 270 2.0 4.0 0.00 0.00 0.00 84 1011.0
20260503070730 54 2 2.0 4.0 0.00 0.00 0.00 84 1011.1
20260503070231 54 266 1.0 4.0 0.00 0.00 0.00 84 1011.1
20260503060226 54 0 1.0 3.0 0.00 0.00 0.00 83 1011.3
20260503054723 54 64 2.0 5.0 0.00 0.00 0.00 83 1011.5
20260503054223 54 231 2.0 4.0 0.00 0.00 0.00 84 1011.5
20260503053720 54 248 2.0 5.0 0.00 0.00 0.00 84 1011.5
20260503053221 54 275 2.0 5.0 0.00 0.00 0.00 84 1011.5
20260503052720 54 281 1.0 4.0 0.00 0.00 0.00 84 1011.5
20260503052446 54 0 1.0 3.0 0.00 0.00 0.00 84 1011.5
20260503051720 54 0 1.0 2.0 0.00 0.00 0.00 84 1011.5
20260503051220 54 359 1.0 3.0 0.00 0.00 0.00 84 1011.5
20260503050721 54 0 1.0 3.0 0.00 0.00 0.00 84 1011.6
20260503050221 54 268 1.0 3.0 0.00 0.00 0.00 84 1011.4
20260503045722 54 288 1.0 3.0 0.00 0.00 0.00 84 1011.4
20260503045221 54 259 2.0 4.0 0.00 0.00 0.00 84 1011.4
20260503044718 54 253 2.0 4.0 0.00 0.00 0.00 84 1011.3
20260503044218 54 168 1.0 4.0 0.00 0.00 0.00 84 1011.3
20260503043719 54 351 1.0 4.0 0.00 0.00 0.00 84 1011.3
20260503043216 54 274 1.0 4.0 0.00 0.00 0.00 84 1011.2
20260503042716 54 0 1.0 3.0 0.00 0.00 0.00 84 1011.3
20260503042216 54 282 1.0 2.0 0.00 0.00 0.00 84 1011.2
20260503041716 54 268 1.0 4.0 0.00 0.00 0.00 84 1011.1
20260503041216 54 243 1.0 4.0 0.00 0.00 0.00 84 1011.0
20260503040716 54 252 1.0 4.0 0.00 0.00 0.00 84 1011.1
20260503040216 54 347 2.0 4.0 0.00 0.00 0.00 84 1011.1
20260503035714 54 34 2.0 4.0 0.00 0.00 0.00 85 1011.0
20260503035214 54 251 2.0 4.0 0.00 0.00 0.00 85 1011.0
20260503034713 54 265 2.0 4.0 0.00 0.00 0.00 85 1011.1
20260503034213 54 271 1.0 4.0 0.00 0.00 0.00 85 1011.0
20260503033714 54 256 1.0 3.0 0.00 0.00 0.00 85 1011.0
20260503033213 54 269 1.0 3.0 0.00 0.00 0.00 85 1010.9
20260503032714 54 288 1.0 4.0 0.00 0.00 0.00 85 1010.9
20260503032214 54 285 2.0 4.0 0.00 0.00 0.00 84 1010.8
20260503031714 54 270 1.0 4.0 0.00 0.00 0.00 85 1010.7
20260503031214 55 287 2.0 4.0 0.00 0.00 0.00 84 1010.6
20260503030711 55 285 2.0 4.0 0.00 0.00 0.00 84 1010.6
20260503030211 55 296 1.0 4.0 0.00 0.00 0.00 84 1010.6
20260503025712 55 5 1.0 4.0 0.00 0.00 0.00 84 1010.5
20260503025432 55 282 1.0 4.0 0.00 0.00 0.00 84 1010.5
20260503024712 55 0 1.0 5.0 0.00 0.00 0.00 84 1010.5
20260503024208 55 236 2.0 6.0 0.00 0.00 0.00 84 1010.4
20260503023931 55 264 2.0 6.0 0.00 0.00 0.00 84 1010.4
20260503023209 55 115 2.0 4.0 0.00 0.00 0.00 83 1010.4
20260503022709 55 269 2.0 4.0 0.00 0.00 0.00 83 1010.4
20260503022210 55 264 2.0 4.0 0.00 0.00 0.00 83 1010.4
20260503021709 55 268 2.0 4.0 0.00 0.00 0.00 82 1010.4
20260503021209 55 305 2.0 4.0 0.00 0.00 0.00 82 1010.4
20260503020709 55 273 1.0 4.0 0.00 0.00 0.00 82 1010.5
20260503020206 55 346 2.0 4.0 0.00 0.00 0.00 81 1010.5
20260503015707 55 266 2.0 6.0 0.00 0.00 0.00 81 1010.4
20260503015203 56 318 2.0 6.0 0.00 0.00 0.00 80 1010.5
20260503014704 56 280 2.0 7.0 0.00 0.00 0.00 80 1010.5
20260503014203 56 300 2.0 7.0 0.00 0.00 0.00 80 1010.5
20260503013704 56 274 2.0 6.0 0.00 0.00 0.00 79 1010.4
20260503013204 56 269 2.0 9.0 0.00 0.00 0.00 79 1010.5
20260503012704 56 252 3.0 9.0 0.00 0.00 0.00 79 1010.5
20260503012204 57 306 2.0 9.0 0.00 0.00 0.00 78 1010.5
20260503011704 57 293 2.0 6.0 0.00 0.00 0.00 78 1010.5
20260503011204 57 301 2.0 5.0 0.00 0.00 0.00 78 1010.5
20260503010704 57 279 2.0 4.0 0.00 0.00 0.00 77 1010.5
20260503010421 57 300 2.0 7.0 0.00 0.00 0.00 77 1010.5
20260503005701 58 320 3.0 7.0 0.00 0.00 0.00 77 1010.5
20260503005420 58 280 3.0 7.0 0.00 0.00 0.00 77 1010.5
20260503004702 58 271 3.0 7.0 0.00 0.00 0.00 77 1010.5
20260503004202 58 359 2.0 8.0 0.00 0.00 0.00 76 1010.5
20260503003703 58 288 3.0 8.0 0.00 0.00 0.00 76 1010.5
20260503003202 58 268 3.0 7.0 0.00 0.00 0.00 77 1010.5
20260503002702 59 269 3.0 6.0 0.00 0.00 0.00 76 1010.5
20260503002202 59 64 3.0 8.0 0.00 0.00 0.00 75 1010.6
20260503001703 59 287 4.0 8.0 0.00 0.00 0.00 75 1010.6
20260503001202 60 0 3.0 9.0 0.00 0.00 0.00 75 1010.6
20260503000703 60 251 3.0 9.0 0.00 0.00 0.00 73 1010.6
20260503000211 60 281 3.0 9.0 0.00 0.00 0.00 72 1010.6
20260502235918 61 283 3.0 9.0 0.00 0.00 0.00 72 1010.6
20260502235200 61 285 2.0 6.0 0.00 0.00 0.00 72 1010.6
20260502234700 61 228 2.0 6.0 0.00 0.00 0.00 72 1010.7
20260502234159 60 294 3.0 7.0 0.00 0.00 0.00 73 1010.8
20260502233201 60 273 4.0 7.0 0.00 0.00 0.00 72 1010.8
20260502232700 60 316 4.0 7.0 0.00 0.00 0.00 73 1010.9
20260502232200 61 279 3.0 7.0 0.00 0.00 0.00 73 1011.0
20260502231918 62 343 2.0 7.0 0.00 0.00 0.00 71 1011.0
20260502231418 62 296 2.0 6.0 0.00 0.00 0.00 72 1011.0
20260502230655 61 105 3.0 8.0 0.00 0.00 0.00 70 1011.1
20260502230154 61 292 3.0 10.0 0.00 0.00 0.00 71 1011.3
20260502225654 62 276 3.0 10.0 0.00 0.00 0.00 71 1011.3
20260502225155 63 278 2.0 6.0 0.00 0.00 0.00 69 1011.3
20260502224655 63 282 2.0 7.0 0.00 0.00 0.00 70 1011.3
20260502224155 63 46 2.0 7.0 0.00 0.00 0.00 69 1011.4
20260502223655 62 281 3.0 7.0 0.00 0.00 0.00 70 1011.5
20260502223155 62 149 3.0 7.0 0.00 0.00 0.00 71 1011.6
20260502222655 62 284 3.0 7.0 0.00 0.00 0.00 69 1011.6
20260502222155 62 255 3.0 7.0 0.00 0.00 0.00 71 1011.6
20260502221656 62 284 3.0 8.0 0.00 0.00 0.00 70 1011.7
20260502221152 61 286 3.0 8.0 0.00 0.00 0.00 70 1011.8
20260502220652 61 268 3.0 8.0 0.00 0.00 0.00 71 1011.8
20260502220414 61 263 3.0 8.0 0.00 0.00 0.00 71 1011.9
20260502215653 61 285 3.0 7.0 0.00 0.00 0.00 72 1011.9
20260502215153 60 292 3.0 7.0 0.00 0.00 0.00 72 1012.0
20260502214653 60 299 3.0 8.0 0.00 0.00 0.00 73 1012.0
20260502214154 60 355 3.0 8.0 0.00 0.00 0.00 74 1012.0
20260502213653 60 280 3.0 7.0 0.00 0.00 0.00 74 1012.0
20260502213153 60 293 3.0 9.0 0.00 0.00 0.00 74 1012.0
20260502212653 60 252 3.0 9.0 0.00 0.00 0.00 73 1012.0
20260502212154 60 285 3.0 8.0 0.00 0.00 0.00 74 1012.1
20260502211653 59 285 3.0 8.0 0.00 0.00 0.00 75 1012.1
20260502211406 58 334 3.0 7.0 0.00 0.00 0.00 77 1012.2
20260502210647 58 272 3.0 7.0 0.00 0.00 0.00 77 1012.4
20260502210147 58 285 3.0 6.0 0.00 0.00 0.00 78 1012.4
20260502205648 58 309 3.0 6.0 0.00 0.00 0.00 78 1012.4
20260502205148 58 277 3.0 10.0 0.00 0.00 0.00 78 1012.5
20260502204647 58 283 3.0 10.0 0.00 0.00 0.00 79 1012.5
20260502204148 58 280 3.0 7.0 0.00 0.00 0.00 79 1012.6
20260502203648 58 282 3.0 6.0 0.00 0.00 0.00 79 1012.6
20260502203148 58 272 3.0 6.0 0.00 0.00 0.00 80 1012.7
20260502202649 58 264 4.0 6.0 0.00 0.00 0.00 79 1012.7
20260502202148 58 268 3.0 6.0 0.00 0.00 0.00 80 1012.7
20260502201646 58 271 3.0 6.0 0.00 0.00 0.00 81 1012.9
20260502201145 58 268 3.0 6.0 0.00 0.00 0.00 80 1012.9
20260502200146 58 273 3.0 6.0 0.00 0.00 0.00 80 1012.9
20260502195646 58 268 3.0 6.0 0.00 0.00 0.00 80 1012.9
20260502194909 57 234 2.0 4.0 0.00 0.00 0.00 81 1012.9
20260502194146 57 265 2.0 6.0 0.00 0.00 0.00 82 1013.0
20260502193645 57 101 2.0 6.0 0.00 0.00 0.00 83 1013.1
20260502193144 57 298 2.0 4.0 0.00 0.00 0.00 83 1013.0
20260502192645 56 287 2.0 5.0 0.00 0.00 0.00 83 1013.0
20260502192135 56 267 2.0 5.0 0.00 0.00 0.00 84 1013.0
20260502191116 56 318 2.0 4.0 0.00 0.00 0.00 85 1013.1
20260502190617 56 314 2.0 4.0 0.00 0.00 0.00 85 1013.1
20260502190337 56 275 2.0 4.0 0.00 0.00 0.00 85 1013.1
20260502185618 56 293 2.0 4.0 0.00 0.00 0.00 85 1013.1
20260502185119 56 277 2.0 4.0 0.00 0.00 0.00 84 1013.1
20260502184840 56 278 2.0 5.0 0.00 0.00 0.00 84 1013.0
20260502184337 56 288 3.0 5.0 0.00 0.00 0.00 84 1013.0
20260502183617 56 277 3.0 5.0 0.00 0.00 0.00 85 1013.0
20260502183116 55 242 2.0 5.0 0.00 0.00 0.00 85 1013.1
20260502182617 55 27 2.0 4.0 0.00 0.00 0.00 86 1013.1
20260502182117 55 273 2.0 5.0 0.00 0.00 0.00 86 1013.1
20260502181617 55 291 2.0 5.0 0.00 0.00 0.00 87 1013.2
20260502181102 56 221 2.0 4.0 0.00 0.00 0.00 86 1013.0
20260502180824 56 294 2.0 4.0 0.00 0.00 0.00 86 1013.0
20260502180104 56 299 2.0 4.0 0.00 0.00 0.00 86 1013.0